Showing default

ORBCOMM FM 107, 40087

Orbit data source: Space-Track

ORBCOMM FM 107, 40087 is a payload satellite owned by Orbcomm (US) in LEO that was launched on Mon, 14 Jul 2014 UTC via an FALCON 9 launch vehicle from the Air Force Eastern Test Range (AFETR). Payload-class satellites include a variety of spacecraft equipped with specific instruments for various scientific and technological missions. These include communications satellites like Starlink; space stations such as the ISS; scientific satellites like the Hubble; Earth observation satellites from companies like Planet Labs, Umbra, and HawkEye 360; GPS; miniature CubeSats for education and research; and military/defense satellites.

Loading next visibility...
Identifier
40087, 2014-040B
Orbit
LEO
Last TLE update
19 hours ago
Origin
Manufacturer
SNC Louisville
Mission
Operational Commercial Communications
Bus & Motor
SN-100A, Unknown motor
Mass
172 kg wet, 158 kg dry
Launch date (UTC)
2014-07-14 (11 years ago)
Launch vehicle
FALCON 9
Launch site
Air Force Eastern Test Range (AFETR)
Object type
Payload
Rocket body
Debris
Shape & HBR
Box + 1 Pan + 1 Ant, 13 m
Radar Cross Section
2.222 m², Medium (>0.1 m² and < 1m²)

Expand to show TLE details & history

TLE from 19 hours ago
0 ORBCOMM FM 107
1 40087U 14040B   25181.64276047  .00000345  00000-0  11042-3 0  9994
2 40087  47.0059 313.7047 0001327 305.0827  54.9934 14.58262045583107
Epoch: 2025-06-30T15:25Z
TLE epoch observation values (Epoch: 2025-06-30T15:25:34.504Z)
Latitude
-0.00003°
Longitude
163.36128°
Altitude
698.469 km
Speed
7.509 km/s
True Right ascension
20h 54m 49s
True Declination
0° 00' 00"
Sunlit
Object was in full shadow at epoch
Visualization orbit readout
Latitude
35.8785°
Longitude
-62.43752°
Altitude
701.828 km
Speed
7.509 km/s
Apparent Right ascension
07h 37m 44s
Apparent Declination
0° 21' 19"
Sunlit
Object is in daylight
Visualization observer readout
Local Sidereal Time
21:44:01
Azimuth
43.515° NE
Elevation
-40.501°
Doppler factor
1
Orbital elements
Apogee altitude
700.964 km
Perigee altitude
699.086 km
Semi-major axis
7,078.162 km
Eccentricity
0.00013
Inclination
47.0059°
RAAN
313.7047°
Arg. of periapsis
305.0827°
True anomaly
Unknown
Mean anomaly
54.9934°
Eccentric anomaly
Unknown
Mean motion
3.64471 °/min
Orbital period
98.77 mins
BSTAR
0.00011042
Loading maneuver chart data...
Loading SW <> Apogee altitude chart data...
Loading historical data...
Loading historical data...
Loading historical data...
Loading historical data...
Loading historical data...
Loading historical data...
Loading historical data...

ORBCOMM FM 107 Visibility forecast

Observer location: undefined°, undefined°

Span
Click to sort rows by Start time (UTC) header in descending order
Start Az.
Max El. time (UTC)
Max El. Az.
Max El.
End time (UTC)
End Az.
8 mins2025-07-01 11:19:37.818Z207.084° SW2025-07-01 11:23:37.818Z140.093° SSE32.968°2025-07-01 11:27:37.818Z75.42° E
8 mins2025-07-01 13:03:37.818Z264.099° W2025-07-01 13:06:37.818Z317.378° NNW39.905°2025-07-01 13:11:37.818Z58.031° ENE
8 mins2025-07-01 14:47:37.818Z298.099° NW2025-07-01 14:51:37.818Z11.878° NNE30.067°2025-07-01 14:55:37.818Z65.466° ENE
8 mins2025-07-01 16:31:37.818Z305.845° NW2025-07-01 16:35:37.818Z32.418° NE38.355°2025-07-01 16:39:37.818Z94.526° ESE
8 mins2025-07-01 18:15:37.818Z283.127° WNW2025-07-01 18:18:37.818Z226.473° WSW36.444°2025-07-01 18:23:37.818Z143.384° SSE
|